Location: A�t Lahcen
(32.8243°N, 5.4246°W)
Time: 02:13:12
(UTC+00:00)

Chandra Rocket (1) - Pass Details

Date: 27 January 2021
Orbit: 347 x 11000 km, 28.4° (Epoch: 26 February)

Event Time Altitude Azimuth Distance (km) Brightness Sun altitude
Exits shadow 06:34:40 10° 262° (W) 2,235 4.3 -9.8°
Reaches altitude 10° 06:34:44 10° 261° (W) 2,204 4.3 -9.8°
Maximum altitude 06:38:33 31° 197° (SSW) 793 2.6 -9.0°
Drops below altitude 10° 06:40:53 10° 130° (SE) 1,324 5.0 -8.5°
Sets 06:42:39 0° 118° (ESE) 2,129 6.9 -8.2°
